Date String (YYYY-MM-DD hh:mm:ss) UTC,Instrument flags,Ambient pressure (hPa),Sample flow (lpm),Bypass flow (lpm),Sample temperature (°C),Ambient temperature (°C),ASC tube jacket temperature (°C),LED temperature (°C),Box temperature (°C),Sample RH (%),Span deviation,Mass concentration (μg/m³),Mass concentration (μg/m³),Mass concentration (μg/m³)
DateTimeUTC,F1_M11,P_M11,Q1_M11,Q2_M11,T1_M11,T2_M11,T3_M11,T4_M11,T5_M11,U1_M11,ZSPAN_M11,X0_M11,X2_M11,X1_M11
2022-06-29 03:00:00,,0829.2,5.00,0.00,29.1,28.1,00.0,37.8,31.1,15.2,0000.0,0011.36,0004.28,0003.68
2022-06-29 03:01:00,,0829.2,5.01,0.00,29.2,28.3,00.0,37.9,31.2,15.2,0000.0,0011.46,0004.28,0003.67
2022-06-29 03:02:00,,0829.2,4.99,0.00,29.2,28.3,00.0,37.9,31.3,15.1,0000.0,0012.24,0004.24,0003.66
2022-06-29 03:03:00,,0829.2,5.01,0.00,29.2,27.8,00.0,37.9,31.1,15.1,0000.0,0011.70,0004.24,0003.66
2022-06-29 03:04:00,,0829.2,5.00,0.00,29.2,27.4,00.0,37.8,31.0,15.1,0000.0,0010.46,0004.21,0003.65
2022-06-29 03:05:00,,0829.2,5.00,0.00,29.1,27.3,00.0,37.8,31.0,15.1,0000.0,0010.30,0004.20,0003.65
2022-06-29 03:06:00,,0829.2,4.99,0.00,29.1,27.4,00.0,37.8,31.0,15.2,0000.0,0010.31,0004.19,0003.66
2022-06-29 03:07:00,,0829.2,4.97,0.00,29.1,27.5,00.0,37.9,31.0,15.3,0000.0,0009.95,0004.16,0003.66
2022-06-29 03:08:00,,0829.2,5.01,0.00,29.1,27.7,00.0,37.9,31.0,15.3,0000.0,0010.06,0004.13,0003.66
2022-06-29 03:09:00,,0829.2,5.01,0.00,29.1,27.8,00.0,37.9,31.1,15.2,0000.0,0010.04,0004.13,0003.66
2022-06-29 03:10:00,,0829.2,5.00,0.00,29.2,28.0,00.0,37.9,31.1,15.2,0000.0,0009.55,0004.07,0003.65
2022-06-29 03:11:00,,0829.2,5.00,0.00,29.2,28.1,00.0,37.9,31.2,15.2,0000.0,0009.83,0004.07,0003.65
2022-06-29 03:12:00,,0829.2,4.99,0.00,29.2,28.3,00.0,37.9,31.3,15.2,0000.0,0009.56,0004.08,0003.66
2022-06-29 03:13:00,,0829.2,4.99,0.00,29.3,28.4,00.0,38.0,31.3,15.2,0000.0,0008.64,0004.12,0003.67
2022-06-29 03:14:00,,0829.3,5.01,0.00,29.3,28.0,00.0,37.9,31.2,15.2,0000.0,0008.63,0004.09,0003.67
2022-06-29 03:15:00,,0829.2,5.00,0.00,29.2,27.2,00.0,37.9,31.0,15.4,0000.0,0008.26,0004.13,0003.68
2022-06-29 03:16:00,,0829.3,5.00,0.00,29.1,26.8,00.0,37.9,30.8,15.5,0000.0,0008.20,0004.14,0003.69
2022-06-29 03:17:00,,0829.2,5.00,0.00,29.1,26.8,00.0,37.8,30.8,15.6,0000.0,0008.20,0004.15,0003.69
2022-06-29 03:18:00,,0829.3,5.00,0.00,29.0,26.9,00.0,37.8,30.8,15.9,0000.0,0008.54,0004.24,0003.70
2022-06-29 03:19:00,,0829.3,4.99,0.00,29.0,27.1,00.0,37.8,30.8,15.9,0000.0,0008.35,0004.28,0003.72
2022-06-29 03:20:00,,0829.3,5.00,0.00,29.0,27.3,00.0,37.8,30.9,15.8,0000.0,0008.37,0004.31,0003.73
2022-06-29 03:21:00,,0829.3,5.00,0.00,29.0,27.5,00.0,37.8,30.9,15.9,0000.0,0008.52,0004.36,0003.75
2022-06-29 03:22:00,,0829.2,5.00,0.00,29.1,27.7,00.0,37.8,31.0,15.8,0000.0,0008.22,0004.36,0003.75
2022-06-29 03:23:00,,0829.2,4.99,0.00,29.1,27.8,00.0,37.8,31.0,15.8,0000.0,0008.10,0004.33,0003.76
2022-06-29 03:24:00,,0829.3,5.00,0.00,29.1,28.0,00.0,37.9,31.1,15.8,0000.0,0008.49,0004.32,0003.77
2022-06-29 03:25:00,,0829.2,5.00,0.00,29.2,28.1,00.0,37.9,31.2,15.7,0000.0,0008.61,0004.39,0003.77
2022-06-29 03:26:00,,0829.2,5.01,0.00,29.2,28.3,00.0,37.9,31.2,15.8,0000.0,0008.78,0004.40,0003.78
2022-06-29 03:27:00,,0829.2,4.99,0.00,29.2,28.4,00.0,37.9,31.3,15.7,0000.0,0008.83,0004.39,0003.78
2022-06-29 03:28:00,,0829.2,5.00,0.00,29.2,27.9,00.0,37.9,31.1,15.6,0000.0,0008.85,0004.40,0003.79
2022-06-29 03:29:00,,0829.2,5.00,0.00,29.2,26.9,00.0,37.8,30.9,15.6,0000.0,0008.59,0004.34,0003.78
2022-06-29 03:30:00,,0829.2,5.00,0.00,29.1,26.6,00.0,37.8,30.8,15.8,0000.0,0008.50,0004.31,0003.77
2022-06-29 03:31:00,,0829.2,5.00,0.00,29.0,26.7,00.0,37.8,30.8,15.8,0000.0,0008.46,0004.29,0003.75
2022-06-29 03:32:00,,0829.2,5.01,0.00,29.0,26.8,00.0,37.8,30.8,15.8,0000.0,0008.40,0004.25,0003.74
2022-06-29 03:33:00,,0829.2,4.99,0.00,29.0,27.0,00.0,37.8,30.8,15.8,0000.0,0008.59,0004.25,0003.73
2022-06-29 03:34:00,,0829.2,4.99,0.00,29.0,27.2,00.0,37.8,30.8,15.9,0000.0,0008.86,0004.29,0003.73
2022-06-29 03:35:00,,0829.2,5.00,0.00,29.0,27.4,00.0,37.8,30.9,15.9,0000.0,0008.40,0004.29,0003.72
2022-06-29 03:36:00,,0829.3,5.00,0.00,29.0,27.6,00.0,37.8,30.9,15.7,0000.0,0008.55,0004.24,0003.71
2022-06-29 03:37:00,,0829.2,5.01,0.00,29.0,27.8,00.0,37.8,31.0,15.7,0000.0,0008.96,0004.23,0003.70
2022-06-29 03:38:00,,0829.3,4.98,0.00,29.1,27.9,00.0,37.8,31.0,15.7,0000.0,0009.25,0004.24,0003.70
2022-06-29 03:39:00,,0829.3,5.00,0.00,29.1,28.1,00.0,37.8,31.1,15.5,0000.0,0009.19,0004.21,0003.69
2022-06-29 03:40:00,,0829.3,5.01,0.00,29.1,28.2,00.0,37.8,31.1,15.5,0000.0,0009.41,0004.20,0003.68
2022-06-29 03:41:00,,0829.3,4.99,0.00,29.2,28.3,00.0,37.9,31.2,15.5,0000.0,0009.60,0004.21,0003.67
2022-06-29 03:42:00,,0829.3,5.01,0.00,29.2,28.4,00.0,37.9,31.2,15.6,0000.0,0009.64,0004.22,0003.67
2022-06-29 03:43:00,,0829.4,5.01,0.00,29.2,27.9,00.0,37.9,31.1,15.4,0000.0,0009.71,0004.25,0003.67
2022-06-29 03:44:00,,0829.3,4.99,0.00,29.1,27.0,00.0,37.8,30.8,15.4,0000.0,0009.56,0004.24,0003.66
2022-06-29 03:45:00,,0829.3,5.00,0.00,29.0,26.7,00.0,37.8,30.7,15.5,0000.0,0010.02,0004.22,0003.65
2022-06-29 03:46:00,,0829.3,5.00,0.00,29.0,26.7,00.0,37.8,30.7,15.5,0000.0,0010.63,0004.24,0003.65
2022-06-29 03:47:00,,0829.3,5.02,0.00,29.0,26.8,00.0,37.8,30.7,15.5,0000.0,0010.30,0004.23,0003.64
2022-06-29 03:48:00,,0829.4,5.02,0.00,28.9,27.0,00.0,37.7,30.8,15.4,0000.0,0009.58,0004.20,0003.62
2022-06-29 03:49:00,,0829.4,5.00,0.00,28.9,27.2,00.0,37.7,30.8,15.4,0000.0,0009.29,0004.23,0003.62
2022-06-29 03:50:00,,0829.4,5.00,0.00,29.0,27.4,00.0,37.7,30.9,15.4,0000.0,0009.31,0004.22,0003.62
2022-06-29 03:51:00,,0829.4,4.99,0.00,29.0,27.6,00.0,37.8,30.9,15.4,0000.0,0009.67,0004.22,0003.61
2022-06-29 03:52:00,,0829.4,4.99,0.00,29.0,27.8,00.0,37.8,31.0,15.5,0000.0,0010.14,0004.19,0003.60
2022-06-29 03:53:00,,0829.5,5.01,0.00,29.0,27.9,00.0,37.8,31.0,15.3,0000.0,0011.43,0004.15,0003.60
2022-06-29 03:54:00,,0829.5,4.99,0.00,29.1,28.0,00.0,37.8,31.1,15.3,0000.0,0011.54,0004.14,0003.60
2022-06-29 03:55:00,,0829.5,5.00,0.00,29.1,28.2,00.0,37.8,31.1,15.3,0000.0,0011.92,0004.15,0003.60
2022-06-29 03:56:00,,0829.5,5.00,0.00,29.1,28.3,00.0,37.9,31.2,15.2,0000.0,0011.42,0004.18,0003.60
2022-06-29 03:57:00,,0829.5,5.01,0.00,29.2,28.4,00.0,37.9,31.2,15.1,0000.0,0010.79,0004.13,0003.60
2022-06-29 03:58:00,,0829.5,4.99,0.00,29.2,28.4,00.0,37.9,31.3,15.1,0000.0,0010.79,0004.14,0003.61
2022-06-29 03:59:00,,0829.5,5.01,0.00,29.3,28.3,00.0,37.9,31.3,15.1,0000.0,0010.81,0004.16,0003.61
